STARLINK-5852 (55933 NORAD) Tracking and Keplerian Element Data

This shows tracking and keplerian element data for the satellite.

Feedback or suggestion? Click here.




ElementValue
Catalog55933
NameSTARLINK-5852
Epoch Orbit794
Epoch Day126.16812769
Epoch Year2023
RAAN42.1854
Inclination70.0009
Eccentricity0.0003686
Argument of Perigee262.4682
Mean Anonmoly97.6095
Mean Motion15.69926974
Decay Rate1.743E-05
L11 55933U 23037V 23126.16812769 .00001743 00000+0 16264-4 0 9991
L22 55933 70.0009 42.1854 0003686 262.4682 97.6095 15.69926974 7944



Live tracking and technical data element details for STARLINK-5852 (NORAD 55933). STARLINK-5852 can be tracked NOW for your location showing map with azimuth and elevation plus other details from your city location.







IsCatalogInMostPopularTable: catalog: 55933, numindb: 8
Update: records affected: 1



GetName: 55933 STARLINK-5852

Hit Count: updated at: Tue, 06 Jun 2023 03:38:38 GMT